Regional Weather Roundup
Issued by NWS Memphis, TN

Home | Current Version | Previous Version | Text Only | Print | Product List | Glossary On
Versions: 1 2 3 4 5 6 7 8 9 10 11 12 13 14 15 16 17 18 19 20 21 22 23 24 25 26 27 28 29 30 31 32 33 34 35 36 37 38 39 40 41 42 43 44 45 46 47 48 49 50
000
ASUS44 KMEG 012100
RWRMEG
MEMPHIS CWA HOURLY WEATHER ROUNDUP
NATIONAL WEATHER SERVICE MEMPHIS TN
400 PM CDT WED JUL 01 2015

...WEST TENNESSEE...

CITY           SKY/WX    TMP DP  RH WIND       PRES   REMARKS
MEMPHIS INTL   CLOUDY    84  75  74 S8        29.95F HX  92
NWS MEMPHIS      N/A     85 N/A N/A MISG        N/A
JACKSON        CLOUDY    84  69  60 S9        29.95F
LEXINGTON      MOSUNNY   75  70  83 SE6       29.95F
DYERSBURG        N/A    N/A N/A N/A MISG        N/A
PARIS          MOSUNNY   73  66  78 S8        29.94R


...EASTERN ARKANSAS...

CITY           SKY/WX    TMP DP  RH WIND       PRES   REMARKS
JONESBORO      CLOUDY    83  72  69 S12       29.92F
WEST MEMPHIS   CLOUDY    83  75  77 SW7       29.93F HX  90
BATESVILLE     PTSUNNY   86  73  66 S8        29.92F HX  93
WALNUT RIDGE   CLOUDY    84  70  61 S14       29.92F
BLYTHEVILLE    CLOUDY    83  67  58 SW15G21   29.92F
SEARCY         MOSUNNY   90  77  65 S12       29.94F HX 103
STUTTGART      PTSUNNY   91  72  52 MISG      29.94F HX  98
PINE BLUFF     PTSUNNY   89  72  56 S12       29.95F HX  96
MONTICELLO     MOSUNNY   89  73  59 SW8       29.97F HX  97


...NORTH MISSISSIPPI...

CITY           SKY/WX    TMP DP  RH WIND       PRES   REMARKS
TUPELO         PTSUNNY   87  73  62 W12       29.97F HX  94
TUNICA         CLOUDY    88  72  58 SW12      29.96F HX  94
CLARKSDALE     CLOUDY    88  75  66 SW13      29.96F HX  97
GREENWOOD      MOSUNNY   87  72  60 VRB7      29.98F HX  93
STARKVILLE     FAIR      88  72  58 SW3       29.99F HX  94
GOLDEN TRIANGL PTSUNNY   88  72  58 W7        29.98F HX  94


...SOUTHEAST MISSOURI...

CITY           SKY/WX    TMP DP  RH WIND       PRES   REMARKS
WEST PLAINS    PTSUNNY   74  67  78 SW7       29.95F
CAPE GIRARDEAU MOSUNNY   82  69  64 W16       29.89S


...NORTHWEST ALABAMA...

CITY           SKY/WX    TMP DP  RH WIND       PRES   REMARKS
MUSCLE SHOALS  CLOUDY    75  71  87 SE3       30.02S


...MIDDLE TENNESSEE...

CITY           SKY/WX    TMP DP  RH WIND       PRES   REMARKS
NASHVILLE      CLOUDY    72  70  93 S10       29.98R
CLARKSVILLE    PTSUNNY   79  66  64 VRB6      29.92F
COLUMBIA       SUNNY     72  70  94 S5        29.99S


...WESTERN KENTUCKY...

CITY           SKY/WX    TMP DP  RH WIND       PRES   REMARKS
PADUCAH        MOSUNNY   82  69  64 S9        29.89S
FORT CAMPBELL  PTSUNNY   79  68  68 SW7       29.92F


...CENTRAL ARKANSAS...

CITY           SKY/WX    TMP DP  RH WIND       PRES   REMARKS
LITTLE ROCK    PTSUNNY   91  69  48 SW10      29.94F HX  96


SKY/WX REPORTED AS FAIR MEANS FEW OR NO CLOUDS BELOW
12 THOUSAND FEET.



USA.gov is the U.S. government's official web portal to all federal, state and local government web resources and services.